{"data":{"norad_id":67528,"epoch":"2026-05-25T04:18:00.401184Z","epoch_age_seconds":59316,"freshness":"FRESH","line1":"1 67528U 26013G   26145.17917131 -.00000075  00000+0  10522-3 0  9993","line2":"2 67528  50.0042  77.9218 0000919  27.0331 333.0589 13.29327965 16993","mean_motion":13.29327965,"eccentricity":9.19e-5,"inclination_deg":50.0042,"raan_deg":77.9218,"arg_perigee_deg":27.0331,"mean_anomaly_deg":333.0589,"bstar":0.00010522,"rev_number":1699,"period_min":108.32541238234,"perigee_km":1148.6073824723,"apogee_km":1149.9909252373,"semimajor_km":7527.4361538548,"source":"CELESTRAK","updated_at":"2026-05-25T13:38:07.050999Z"}}